weather.gov     
National Weather Service

Regional Weather Roundup
NWS Homepage
This page is being discontinued on March 12, 2014.
The same data is available at this site. Please update your bookmarks.
Thank you, and we apologize for the inconvenience.
Please send an email to SR-SRH.Webmaster@noaa.gov with any concerns.


Current Version
Previous Version:    01  02  03  04  05  06  07  08  09  10  11  12  13  14  15  16  17  18  19  20  21  22  23  24  25  26  27  28  29  30  
   31  32  33  34  35  36  37  38  39  40  41  42  43  44  45  46  47  48  49  50  51  52  53  54  55  56  57  58  59  60  
[Printable]
585
ASUS44 KFWD 262315
RWRTX
NORTH TEXAS HOURLY WEATHER ROUNDUP
NATIONAL WEATHER SERVICE FORT WORTH TX
500 PM CST WED NOV 26 2014

NOTE: "FAIR" INDICATES FEW OR NO CLOUDS BELOW 12,000 FEET WITH NO
SIGNIFICANT WEATHER AND/OR OBSTRUCTIONS TO VISIBILITY.

TXZ118-119-270000-
DALLAS/FORT WORTH METROPLEX

CITY           SKY/WX    TMP DP  RH WIND       PRES   REMARKS
DFW AIRPORT    PTCLDY    60  34  37 N10       30.23R
DALLAS LOVE    CLEAR     62  34  35 N9        30.23R
FTW MEACHAM    CLEAR     62  35  36 NW12      30.23R
DAL-EXECUTIVE  CLEAR     63  32  31 N7        30.22R
FTW-ALLIANCE   PTCLDY    60  34  37 N8        30.23R
FTW-SPINKS     CLEAR     63  34  34 NW10      30.24R
ARLINGTON      CLEAR     63  32  31 N9        30.23R
GRAND PRAIRIE  CLEAR     63  36  36 N9        30.24
MESQUITE       CLEAR     63  32  31 NW8       30.22R
LANCASTER      CLEAR     62  31  31 NW9       30.23R
$$

TXZ091>094-102>105-117-120-121-131>134-270000-
NORTH CENTRAL TEXAS

CITY           SKY/WX    TMP DP  RH WIND       PRES   REMARKS
SHRMAN/DENISON CLEAR     59  37  44 NW7       30.24R
GAINESVILLE    CLEAR     58  33  39 NW10      30.26R
BOWIE          CLEAR     56  33  41 NW9       30.26R
BRIDGEPORT     CLEAR     59  39  47 NW5       30.27R
DECATUR        CLEAR     58  33  39 NW7       30.25R
DENTON         CLEAR     59  34  39 N7        30.23R
MCKINNEY       CLEAR     61  32  33 NW9       30.23R
GREENVILLE     CLEAR     61  32  33 NW8       30.22R
ROCKWALL       CLEAR     61  35  37 NW7       30.21R
TERRELL        CLEAR     65  33  30 NW7       30.22R
WAXAHACHIE     CLEAR     62  36  38 N7        30.23R
CLEBURNE       CLEAR     61  34  36 NW10      30.25R
GRANBURY       CLEAR     62  35  37 NW6       30.26R
$$

TXZ083>090-098>101-113>116-127>130-139>142-154-155-270000-
WESTERN NORTH TEXAS

CITY           SKY/WX    TMP DP  RH WIND       PRES   REMARKS
WICHITA FALLS  CLEAR     57  33  40 N7        30.27R
WF-KICKAPOO    CLEAR     58  29  33 N7        30.28R
VERNON         CLEAR     57  28  33 N6        30.29R
ABILENE        CLEAR     58  34  40 N8        30.26R
ABILENE-DYESS  CLEAR     57  35  43 NE7       30.26R
BRECKENRIDGE   CLEAR     59  34  39 N9        30.26R HAZE
GRAHAM         CLEAR     58  38  46 NW8       30.25S
MINERAL WELLS  CLEAR     60  36  40 N10       30.23R
STEPHENVILLE   CLEAR     60  32  34 N6        30.27R
COMANCHE       CLEAR     61  35  37 N9        30.24R
BROWNWOOD      CLEAR     61  32  33 N8        30.24R
COLEMAN        CLEAR     59  38  45 NE10      30.25R
BRADY          CLEAR     61  30  31 N8        30.23R
$$

TXZ143>147-156>162-174-175-270000-
CENTRAL TEXAS

CITY           SKY/WX    TMP DP  RH WIND       PRES   REMARKS
WACO           CLEAR     63  31  30 NE9       30.21R
WACO-TSTC      CLEAR     64  28  25 NW6       30.21R
WACO-MCGREGOR  CLEAR     64  30  27 N6        30.23R
HILLSBORO      CLEAR     63  33  32 N9        30.23R
CORSICANA      CLEAR     65  31  28 NE3       30.22R
MEXIA          CLEAR     64  32  29 N7        30.19S
HEARNE         CLEAR     66  37  34 NW6       30.21R
CAMERON        CLEAR     66  35  31 N6        30.20R
TEMPLE         CLEAR     66  30  26 N5        30.21R
KILLEEN        CLEAR     65  31  28 N7        30.22R
KILLEEN-SKYLRK CLEAR     66  28  24 N7        30.21R
FORT HOOD      CLEAR     69  29  22 NW5       30.21R
GATESVILLE     CLEAR     64  32  29 N5        30.24R
HAMILTON       CLEAR     63  31  29 NE15      30.24R
LAMPASAS       CLEAR     63  31  30 N5        30.22R
$$

TXZ095>097-106>112-122>126-135>138-148>153-164>167-270000-
EAST TEXAS

CITY           SKY/WX    TMP DP  RH WIND       PRES   REMARKS
PARIS          CLEAR     57  30  35 NW10      30.21R
SULPHUR SPRNGS CLEAR     59  35  41 N8        30.23R
MOUNT PLEASANT CLEAR     61  29  30 NW9       30.21R
MINEOLA        CLEAR     63  32  31 NW5       30.20R
TYLER          CLEAR     62  32  32 NW7       30.19R
LONGVIEW       CLEAR     62  32  32 W7        30.17R
MARSHALL       CLEAR     66  32  28 W5        30.18R
ATHENS         CLEAR     61  32  33 CALM      30.19R
PALESTINE      CLEAR     64  32  30 CALM      30.21R
JACKSONVILLE   CLEAR     64  30  28 W6        30.21R
HENDERSON      CLEAR     60  35  39 CALM      30.19R
NACOGDOCHES    CLEAR     64  34  32 NW8       30.19R
LUFKIN         CLEAR     69  33  26 NW5       30.18R
$$

SUPPLEMENTAL OBSERVATIONS (CENTRAL)

CITY           SKY/WX    TMP DP  RH WIND       PRES   REMARKS
LAKE TEXOMA      N/A     59  34  38 NW16        N/A
CADDO GRASSLND   N/A     57  28  33 NW2         N/A
PAT MAYSE LAKE   N/A     57  30  35 NW12        N/A
GREENVILLE       N/A     61  32  33 NW5         N/A
CEDAR HILL       N/A     61  37  41 N5          N/A
ATHENS           N/A     63  32  31 NW2         N/A
MCGREGOR         N/A     64  32  29 N6          N/A
$$

SUPPLEMENTAL OBSERVATIONS (WEST)

CITY           SKY/WX    TMP DP  RH WIND       PRES   REMARKS
MILLERS CREEK    N/A     57  36  44 NE5         N/A
HAMBY            N/A     57  34  41 N6          N/A
IVIE RESERVOIR   N/A     63  32  31 NE10        N/A
COLORADO BEND    N/A     64  30  27 N2          N/A
$$

SUPPLEMENTAL OBSERVATIONS (EAST)

CITY           SKY/WX    TMP DP  RH WIND       PRES   REMARKS
TEXARKANA        N/A     59  30  33 NW7G15      N/A
LINDEN           N/A     61  32  33 NW6         N/A
CADDO LAKE       N/A     57  37  47 W2          N/A
GILMER           N/A     63  32  31 NW6         N/A
HENDERSON        N/A     63  32  31 W6          N/A
LUFKIN           N/A     64  32  29 MISG        N/A
N SABINE NF      N/A     61  37  41 MISG        N/A
S SABINE NF      N/A     59  39  47 CALM        N/A
$$

SUPPLEMENTAL OBSERVATIONS ARE A COLLECTION OF AUTOMATED INSTRUMENTS
THAT ARE MAINTAINED BY A VARIETY OF FEDERAL AND STATE AGENCIES.
CERTAIN ELEMENTS...SUCH AS HUMIDITY VALUES AND SUSTAINED WIND
SPEEDS...MAY BE APPROXIMATED.





U.S. Dept. of Commerce
NOAA National Weather Service
1325 East West Highway
Silver Spring, MD 20910
E-mail: w-nws.webmaster@noaa.gov
Page last modified: May 16, 2007
NATIONAL WEATHER SERVICE: for Safety, for Work, for Fun - FOR LIFE